Regional Weather Roundup
Issued by NWS Charleston, SC

Home | Current Version | Previous Version | Text Only | Print | Product List | Glossary On
Versions: 1 2 3 4 5 6 7 8 9 10 11 12 13 14 15 16 17 18 19 20 21 22 23 24 25 26 27 28 29 30 31 32 33 34 35 36 37 38 39 40 41 42 43 44 45 46 47 48 49 50
000
ASUS42 KCHS 110513
RWRCHS

REGIONAL WEATHER ROUNDUP
NATIONAL WEATHER SERVICE CHARLESTON SC
1200 AM EST THU FEB 11 2016

NOTE: "FAIR" INDICATES FEW OR NO CLOUDS BELOW 12,000 FEET WITH NO
SIGNIFICANT WEATHER AND/OR OBSTRUCTIONS TO VISIBILITY.

NOT ALL STATIONS ARE QUALITY CONTROLLED BY THE NATIONAL
WEATHER SERVICE. USE DATA WITH CAUTION...ESPECIALLY
DEWPOINT OBSERVATIONS.

SCZ027-030-031-034>040-042>050-110600-
...SOUTHEAST SOUTH CAROLINA...

CITY           SKY/WX    TMP DP  RH WIND       PRES   REMARKS
N CHARLESTON   CLEAR     32  17  54 W7        30.16R WCI  26
WATERFRONT PRK   N/A     36  20  52 VRB3      30.00R
MOUNT PLEASANT FAIR      36  18  48 W6        30.16R WCI  31
JOHNS ISLAND   FAIR      34  19  55 CALM      30.16S
PINOPOLIS        N/A     36  19  51 W10       30.08R WCI  28
MONCKS CORNER  FAIR      28  12  50 CALM      30.15S
SUMMERVILLE    FAIR      32  21  64 W5        30.17R WCI  27
BEAUFORT MCAS  CLEAR     35  18  49 W9        30.19R WCI  28
BEAUFORT ARPT  FAIR      37  19  48 W10G16    30.18R WCI  30
HILTON HEAD IS CLEAR     39  21  48 SW7       30.20R WCI  34
WALTERBORO     CLEAR     32  23  69 W3        30.18R
ALLENDALE      FAIR      30  21  69 CALM      30.17S

...SOUTHERN MIDLANDS AND PEE DEE...

CITY           SKY/WX    TMP DP  RH WIND       PRES   REMARKS
GEORGETOWN     FAIR      28  19  69 W3        30.15S
KINGSTREE      FAIR      30  14  51 CALM      30.14R
ORANGEBURG     CLEAR     31  13  47 W7        30.15R WCI  24
BARNWELL       FAIR      32  18  55 CALM      30.18R
AIKEN          FAIR      30  12  47 W7        30.17S WCI  23
MANNING        FAIR      28  18  64 CALM      30.14S
COLUMBIA       CLEAR     34  11  38 W14       30.13R WCI  25
SUMTER         CLEAR     30  11  45 W9        30.11R WCI  22
FLORENCE       CLEAR     29  14  53 W6        30.11S WCI  23
MYRTLE BEACH   CLEAR     32  10  40 W6        30.15R WCI  26
N MYRTLE BEACH CLEAR     33  14  45 W6        30.12R WCI  28

$$

GAZ063-065-086>088-099>101-113>116-118-119-134>141-150-110600-
...SOUTHEAST GEORGIA...

CITY           SKY/WX    TMP DP  RH WIND       PRES   REMARKS
SAVANNAH ARPT  CLEAR     33  19  56 W5        30.21R WCI  29
HUNTER AAF     CLEAR     35  20  54 SW7       30.18R WCI  29
FORT STEWART   CLEAR     33  20  58 W6        30.19R WCI  28
STATESBORO     PTCLDY    38  13  35 W6        30.19S WCI  34
SYLVANIA       CLEAR     32  26  76 W5        30.19R WCI  28
CLAXTON        FAIR      37  22  55 SW5       30.21R WCI  33

...CSRA...CENTRAL AND FAR SOUTHEAST GEORGIA...

CITY           SKY/WX    TMP DP  RH WIND       PRES   REMARKS
THOMSON        CLEAR     34  17  49 W5        30.21S WCI  30
AUGUSTA-BUSH   CLEAR     34  12  40 NW7       30.18R WCI  28
AUGUSTA-DANIEL NOT AVBL
SWAINSBORO     MOCLDY    34  18  51 W3        30.20S
VIDALIA        CLEAR     36  18  48 W5        30.20S WCI  32
EASTMAN        FAIR      36  17  44 NW3       30.24S
HAZLEHURST     FAIR      36  20  52 CALM      30.20S
ALMA           CLEAR     33  22  63 W3        30.22R
WAYCROSS       CLEAR     37  25  62 W3        30.22R
JESUP          FAIR      32  28  86 CALM      30.22R
BAXLEY         FAIR      36  23  60 W3        30.22R
BRUNSWICK      CLEAR     39  23  52 W8        30.21S WCI  34
SAINT SIMONS   CLEAR     39  23  52 W6        30.20S WCI  35

$$

SCZ027-028-034-036>038-045-046-048>050-GAZ119-141-110600-
...LAKE AND SUPPLEMENTAL COASTAL OBSERVATIONS...

STATION/POSITION TIME  TEMP    WIND        PRES    WAVE   SWELL
                       AIR SEA DIR/SP/G            HT/PER HT/PER/DIR
                 (UTC) (F)     (DEG/KT/KT) (MB)    (FT/S) (FT/S/D)
WINYAH BAY       0345   34     260/  3     1019.0
LAKE MURRAY      0400   35     280/ 14/ 22 1019.0R
ACE BASIN NERRS  0345   37     240/  3     1021.0
FORT PULASKI     0400   39 50  240/  6/  8 1022.4S
SAPELO ISLAND    0400   41     240/ 10     1022.0F

$$

ANZ835-935-AMZ111-154-330-350-352-354-370-450-454-472-110600-
...C-MAN AND BUOY OBSERVATIONS...

STATION/POSITION TIME  TEMP    WIND        PRES    WAVE   SWELL
                       AIR SEA DIR/SP/G            HT/PER HT/PER/DIR
                 (UTC) (F)     (DEG/KT/KT) (MB)    (FT/S) (FT/S/D)
BUOY 41004       0450   45 63  280/ 27/ 33 1019.8R   9/ 8   2/12
BUOY 41008       0450   46 53  270/ 19/ 23 1022.3R   3/ 4
FOLLY BEACH CMAN 0500   37     260/  7/ 10 1021.4R
CAPERS NEARSHORE 0408   41     280/ 17/ 23 1020.4R
FRIPP NEARSHORE  0400   44     270/ 21/ 25 1020.4F


STATION/POSITION TIME  TEMP    WIND        PRES    WAVE   SWELL
                       AIR SEA DIR/SP/G            HT/PER HT/PER/DIR
                 (UTC) (F)     (DEG/KT/KT) (MB)    (FT/S) (FT/S/D)
5E ST. MARYS GA  0421      55                N/A     2/15   2/ 80/15
FRYING PAN BUOY  0400   43 61  270/ 25/ 35 1019.0R
BUOY 41025       0450   42 72  290/ 27/ 33 1014.8R   7/ 6   2/ 70/13
CAPE LOOKOUT NC  NOT AVBL
BUOY 41002       0450   55 68  280/ 29/ 35   N/A    16/10  11/280/10
BUOY 41010       0420   60 72              1022.0R
ST AUGUSTINE FL  0500   39 55  250/  3/  5 1024.7F


$$



USA.gov is the U.S. government's official web portal to all federal, state and local government web resources and services.